Le nostre stazioni meteo in Italia

Pubblicità
Il mio iltempo24.it
Mt. St.Vincent, Francia (7382): Temperatura & dewpoint: 16.11.2019 09:00:00 - 22.11.2019 09:00:00 (CET)Mt. St.Vincent, Francia (7382): velocità del vento & gusts: 16.11.2019 09:00:00 - 22.11.2019 09:00:00 (CET)Mt. St.Vincent, Francia (7382): direzione del vento: 16.11.2019 09:00:00 - 22.11.2019 09:00:00 (CET)Mt. St.Vincent, Francia (7382): ore di luce: 16.11.2019 09:00:00 - 22.11.2019 09:00:00 (CET)Mt. St.Vincent, Francia (7382): precipitazioni: 16.11.2019 09:00:00 - 22.11.2019 09:00:00 (CET)
Data & Tempo tt [°C] td [°C] ff [km/h] ff [kn] fx [km/h] fx [kn] dd sd [min] rr [mm]
22.11.2019 09:00:00 - - - - - - - - -
22.11.2019 08:00:00 3,9 3,2 21 11 28 15 SE 0 0,0
22.11.2019 07:00:00 3,8 3,4 16 9 24 13 SE 0 -
22.11.2019 06:00:00 4,2 3,5 15 8 22 12 SE 0 0,0
22.11.2019 05:00:00 4,9 3,2 16 9 24 13 SE 0 0,0
22.11.2019 04:00:00 5,4 3,4 18 10 26 14 SSE 0 0,0
22.11.2019 03:00:00 5,4 3,6 15 8 22 12 SSE 0 0,0
22.11.2019 02:00:00 6,3 3,5 11 6 22 12 SSO 0 0,0
22.11.2019 01:00:00 5,8 4,0 16 9 26 14 S 0 -
22.11.2019 00:00:00 5,9 4,2 15 8 31 17 S 0 0,0
21.11.2019 23:00:00 5,8 4,6 21 11 34 18 SSE 0 0,0
21.11.2019 22:00:00 5,7 4,5 18 10 37 20 SE 0 0,0
21.11.2019 21:00:00 6,2 4,4 22 12 34 18 S 0 0,0
21.11.2019 20:00:00 6,1 4,6 22 12 35 19 SSE 0 0,0
21.11.2019 19:00:00 5,8 4,8 21 11 34 18 ESE 0 -
21.11.2019 18:00:00 6,3 4,3 24 13 35 19 SSE 0 0,2
21.11.2019 17:00:00 6,2 4,0 24 13 37 20 SE 0 0,0
21.11.2019 16:00:00 6,2 4,2 22 12 35 19 SE 0 0,0
21.11.2019 15:00:00 6,2 4,2 21 11 31 17 ESE 6 0,0
21.11.2019 14:00:00 6,3 4,1 18 10 34 18 ESE 24 0,0
21.11.2019 13:00:00 6,2 3,9 24 13 37 20 ESE 48 -
21.11.2019 12:00:00 4,8 3,6 21 11 31 17 SE 24 0,0
21.11.2019 11:00:00 4,5 3,0 21 11 31 17 SE 60 0,0
21.11.2019 10:00:00 3,9 3,2 21 11 37 20 SE 54 0,0
21.11.2019 09:00:00 3,2 2,8 24 13 39 21 SE 42 0,0
21.11.2019 08:00:00 2,8 2,5 26 14 41 22 SE 0 0,0
21.11.2019 07:00:00 2,8 2,7 21 11 34 18 SE 0 -
21.11.2019 06:00:00 3,4 3,1 22 12 34 18 SE 0 0,0
21.11.2019 05:00:00 2,9 2,6 22 12 34 18 SE 0 0,0
21.11.2019 04:00:00 3,7 2,8 22 12 31 17 SSE 0 0,0
21.11.2019 03:00:00 2,8 2,2 22 12 29 16 SE 0 0,0
21.11.2019 02:00:00 3,7 3,0 21 11 34 18 SSE 0 0,0
21.11.2019 01:00:00 3,3 3,0 26 14 37 20 SSE 0 -
21.11.2019 00:00:00 1,9 1,9 24 13 35 19 ESE 0 0,0
20.11.2019 23:00:00 1,1 1,0 18 10 31 17 E 0 0,0
20.11.2019 22:00:00 1,6 1,3 22 12 29 16 E 0 0,0
20.11.2019 21:00:00 2,0 1,9 22 12 29 16 ESE 0 0,0
20.11.2019 20:00:00 1,2 1,2 21 11 26 14 E 0 0,0
20.11.2019 19:00:00 1,7 1,7 21 11 31 17 ESE 0 -
20.11.2019 18:00:00 0,4 0,4 22 12 29 16 E 0 0,0
20.11.2019 17:00:00 0,3 0,3 22 12 29 16 E 36 0,0
20.11.2019 16:00:00 1,3 1,3 21 11 34 18 E 60 0,0
20.11.2019 15:00:00 1,3 1,3 21 11 28 15 E 60 0,0
20.11.2019 14:00:00 1,0 1,0 15 8 22 12 E 60 0,0
20.11.2019 13:00:00 0,5 0,5 11 6 22 12 E 60 -
20.11.2019 12:00:00 -0,3 -0,3 16 9 26 14 E 30 0,0
20.11.2019 11:00:00 -0,9 -0,9 18 10 24 13 E 36 0,0
20.11.2019 10:00:00 -1,1 -1,1 18 10 22 12 E 24 0,0
20.11.2019 09:00:00 -1,5 -1,5 16 9 21 11 E 36 0,0
20.11.2019 08:00:00 -1,1 -1,1 13 7 18 10 ESE 0 0,0
20.11.2019 07:00:00 -0,8 -0,8 11 6 16 9 ESE 0 -
20.11.2019 06:00:00 -1,2 -1,2 13 7 22 12 E 0 0,0
20.11.2019 05:00:00 -0,7 -0,7 18 10 26 14 E 0 0,0
20.11.2019 04:00:00 -0,4 -0,4 15 8 22 12 ENE 0 0,0
20.11.2019 03:00:00 -0,3 -0,6 15 8 22 12 E 0 0,0
20.11.2019 02:00:00 0,1 -0,8 13 7 22 12 ENE 0 0,0
20.11.2019 01:00:00 0,3 -1,0 18 10 31 17 ENE 0 -
20.11.2019 00:00:00 0,6 -1,5 18 10 34 18 ENE 0 0,0
19.11.2019 23:00:00 0,7 -2,0 15 8 24 13 NE 0 0,0
19.11.2019 22:00:00 1,3 -2,1 11 6 21 11 NE 0 0,0
19.11.2019 21:00:00 1,5 -1,9 13 7 24 13 ENE 0 0,0
19.11.2019 20:00:00 1,7 -1,7 11 6 28 15 ENE 0 0,0
19.11.2019 19:00:00 2,3 -1,5 9 5 26 14 NE 0 -
19.11.2019 18:00:00 2,8 -0,8 15 8 28 15 NE 0 0,0
19.11.2019 17:00:00 2,9 -0,4 8 4 22 12 NNE 0 0,0
19.11.2019 16:00:00 3,5 -0,2 8 4 22 12 N 0 0,0
19.11.2019 15:00:00 3,7 0,0 9 5 22 12 NNE 0 0,0
19.11.2019 14:00:00 3,9 0,6 9 5 22 12 NNE 0 0,0
19.11.2019 13:00:00 3,5 2,5 8 4 24 13 NNE 0 -
19.11.2019 12:00:00 2,7 2,7 8 4 22 12 NNE 0 0,0
19.11.2019 11:00:00 3,3 3,3 8 4 21 11 N 0 0,0
19.11.2019 10:00:00 3,1 3,1 9 5 24 13 NNE 0 0,0
19.11.2019 09:00:00 2,9 2,9 8 4 22 12 N 0 0,0
19.11.2019 08:00:00 2,8 2,8 8 4 24 13 N 0 0,0
19.11.2019 07:00:00 2,8 2,8 8 4 18 10 N 0 -
19.11.2019 06:00:00 2,8 2,8 8 4 16 9 NNO 0 0,0
19.11.2019 05:00:00 2,6 2,6 8 4 18 10 ONO 0 0,0
19.11.2019 04:00:00 2,5 2,5 9 5 18 10 ONO 0 0,0
19.11.2019 03:00:00 2,4 2,4 9 5 18 10 ONO 0 0,0
19.11.2019 02:00:00 2,3 2,3 11 6 22 12 ONO 0 0,0
19.11.2019 01:00:00 2,2 2,2 15 8 24 13 O 0 -
19.11.2019 00:00:00 2,2 2,2 16 9 34 18 O 0 0,0
18.11.2019 23:00:00 2,1 2,1 24 13 42 23 O 0 0,0
18.11.2019 22:00:00 2,2 1,8 28 15 37 20 O 0 0,0
18.11.2019 21:00:00 2,3 1,9 18 10 29 16 O 0 0,2
18.11.2019 20:00:00 1,9 1,3 16 9 24 13 OSO 0 0,0
18.11.2019 19:00:00 1,8 1,2 18 10 24 13 O 0 -
18.11.2019 18:00:00 1,7 1,0 18 10 28 15 O 0 0,0
18.11.2019 17:00:00 2,6 1,0 16 9 24 13 O 0 0,0
18.11.2019 16:00:00 2,9 1,6 16 9 29 16 O 0 0,0
18.11.2019 15:00:00 3,1 1,1 18 10 29 16 O 24 0,0
18.11.2019 14:00:00 3,3 2,3 18 10 29 16 O 6 0,0
18.11.2019 13:00:00 3,1 2,4 18 10 26 14 O 12 -
18.11.2019 12:00:00 2,6 2,3 16 9 26 14 O 24 0,0
18.11.2019 11:00:00 2,3 2,3 16 9 26 14 O 30 0,0
18.11.2019 10:00:00 1,4 1,4 15 8 24 13 O 36 0,0
18.11.2019 09:00:00 1,0 1,0 18 10 34 18 O 0 0,0
18.11.2019 08:00:00 1,0 1,0 24 13 37 20 O 0 0,0
18.11.2019 07:00:00 1,0 1,0 22 12 29 16 O 0 -
18.11.2019 06:00:00 1,2 1,2 21 11 28 15 O 0 0,0
18.11.2019 05:00:00 1,4 1,4 18 10 28 15 O 0 0,0
18.11.2019 04:00:00 1,3 1,3 15 8 24 13 O 0 0,0
18.11.2019 03:00:00 1,3 1,3 18 10 24 13 O 0 0,0
18.11.2019 02:00:00 1,4 1,4 15 8 22 12 O 0 0,0
18.11.2019 01:00:00 1,5 1,5 15 8 22 12 O 0 -
18.11.2019 00:00:00 1,6 1,6 15 8 22 12 O 0 0,0
17.11.2019 23:00:00 1,7 1,3 15 8 21 11 O 0 0,0
17.11.2019 22:00:00 1,9 0,9 13 7 21 11 ONO 0 0,0
17.11.2019 21:00:00 1,6 0,9 11 6 22 12 ONO 0 0,0
17.11.2019 20:00:00 2,0 1,1 16 9 26 14 ONO 0 0,0
17.11.2019 19:00:00 2,3 0,7 9 5 18 10 ONO 0 -
17.11.2019 18:00:00 2,7 0,8 5 3 21 11 NO 0 0,0
17.11.2019 17:00:00 3,3 1,0 5 3 22 12 NO 0 0,0
17.11.2019 16:00:00 3,9 2,3 8 4 24 13 ONO 0 0,0
17.11.2019 15:00:00 3,6 2,9 13 7 24 13 ONO 0 0,0
17.11.2019 14:00:00 3,2 2,5 16 9 24 13 O 36 0,0
17.11.2019 13:00:00 2,9 1,9 15 8 22 12 O 60 -
17.11.2019 12:00:00 2,8 1,2 11 6 18 10 O 48 0,0
17.11.2019 11:00:00 3,1 0,8 8 4 24 13 NO 54 0,0
17.11.2019 10:00:00 2,6 0,3 15 8 26 14 N 48 0,0
17.11.2019 09:00:00 1,7 0,5 13 7 26 14 N 0 0,0
17.11.2019 08:00:00 0,2 -0,1 15 8 26 14 N 0 0,0
17.11.2019 07:00:00 1,7 -0,1 8 4 13 7 N 0 -
17.11.2019 06:00:00 0,6 0,3 5 3 15 8 NE 0 0,0
17.11.2019 05:00:00 1,3 1,2 4 2 15 8 ONO 0 0,0
17.11.2019 04:00:00 3,2 0,3 0 0 8 4 N 0 0,0
17.11.2019 03:00:00 2,8 -0,8 4 2 13 7 ESE 0 0,0
17.11.2019 02:00:00 2,5 -0,4 9 5 16 9 ESE 0 0,0
17.11.2019 01:00:00 2,0 0,1 13 7 18 10 ESE 0 -
17.11.2019 00:00:00 3,8 -0,4 9 5 15 8 S 0 0,0
16.11.2019 23:00:00 2,1 0,3 8 4 24 13 SE 0 0,0
16.11.2019 22:00:00 2,8 0,0 15 8 21 11 SSE 0 0,0
16.11.2019 21:00:00 2,1 0,8 15 8 29 16 ESE 0 0,0
16.11.2019 20:00:00 3,1 0,0 18 10 31 17 SE 0 0,0
16.11.2019 19:00:00 2,4 0,6 18 10 34 18 SE 0 -
16.11.2019 18:00:00 2,7 0,8 16 9 24 13 SE 0 0,0
16.11.2019 17:00:00 2,5 1,0 13 7 28 15 ESE 6 0,0
16.11.2019 16:00:00 2,9 0,9 18 10 26 14 ESE 54 0,0
16.11.2019 15:00:00 3,5 0,7 15 8 24 13 ESE 60 0,0
16.11.2019 14:00:00 3,2 0,9 15 8 35 19 ESE 54 0,0
16.11.2019 13:00:00 2,4 0,0 18 10 28 15 ESE 36 -
16.11.2019 12:00:00 2,2 0,3 18 10 28 15 ESE 48 0,0
16.11.2019 11:00:00 3,0 -0,8 15 8 24 13 SSE 60 0,0
16.11.2019 10:00:00 2,8 -0,3 11 6 28 15 SE 42 0,0
16.11.2019 09:00:00 0,9 -0,7 18 10 29 16 SE 12 0,0

tt = Temperatura
td = dewpoint
ff = velocità del vento
fx = gusts
dd = direzione del vento
sd = ore di luce
rr = precipitazioni

Stazioni seguenti

WeatherPro
AMSI
MeteoEarth